Tracking 22124 objects as of 25-Jan-2021
HD Live streaming from Space Station
objects crossing your sky now

STARLINK-1321

Track STARLINK-1321 now!
10-day predictions
STARLINK-1321 is classified as:


NORAD ID: 45573
Int'l Code: 2020-025AU
Perigee: 554.1 km
Apogee: 555.7 km
Inclination: 53.0 °
Period: 95.6 minutes
Semi major axis: 6925 km
RCS: Unknown
Launch date: April 22, 2020
Source: United States (US)
Launch site: AIR FORCE EASTERN TEST RANGE (AFETR)
aabbcc
Your satellite tracking list
Your tracking list is empty




NASA's NSSDC Master Catalog

Two Line Element Set (TLE):
1 45573U 20025AU  21024.81968699  .00033991  00000-0  23014-2 0  9995
2 45573  53.0059 190.7822 0001157 111.2380 248.8732 15.06212000 43375
Source of the keplerian elements: AFSPC